Olney-Noble, IL

2:46 PM CDT on September 19, 2017 (GMT -0500)
Olney-Noble

Weather History for KOLY - August, 2013

Change the Weather History Date:

Sunday, August 4, 2013

  Actual Average (KEVV) Record (KEVV)
Temperature  
Mean Temperature 71 °F -  
Max Temperature 80 °F 86 °F 102 °F (2010)
Min Temperature 62 °F 66 °F 53 °F (1950)
Cooling Degree Days 6    
Growing Degree Days 21 (Base 50)    
Moisture  
Dew Point 60 °F    
Average Humidity 69    
Maximum Humidity 100    
Minimum Humidity 44    
Precipitation  
Precipitation 0.00 in - - ()
Sea Level Pressure  
Sea Level Pressure 30.13 in    
Wind  
Wind Speed 3 mph (NE)    
Max Wind Speed 8 mph    
Max Gust Speed -    
Visibility 10 miles    
Events      
Averages and records for this station are not official NWS values.
T = Trace of Precipitation, MM = Missing Value Source: NWS Daily Summary

Daily Weather History Graph

Daily Weather History Graph

Search for Another Location

Airport or City:

Trip Planner

Search our weather history database for the weather conditions in past years. The results will help you decide how hot, cold, wet, or windy it might be!

Date:

Astronomy

Aug. 04, 2013 Rise Set
Actual Time 5:56 AM CDT 8:00 PM CDT
Civil Twilight 5:27 AM CDT 8:29 PM CDT
Nautical Twilight 4:51 AM CDT 9:04 PM CDT
Astronomical Twilight 4:13 AM CDT 9:43 PM CDT
Moon 3:57 AM CDT (8/4) 6:23 PM CDT (8/4)
Length of Visible Light 15h 01m
Length of Day
14h 03m
Waning Crescent, 4% of the Moon is Illuminated
Aug 4
Waning Crescent
Aug 6
New
Aug 14
First Quarter
Aug 20
Full
Aug 28
Last Quarter

Hourly Weather History & Observations

Time (CDT) Temp. Heat Index Dew Point Humidity Pressure Visibility Wind Dir Wind Speed Gust Speed Precip Events Conditions
12:15 AM 69.8 °F - 62.6 °F 78% 30.09 in 10.0 mi North 4.6 mph - N/A   Clear
12:35 AM 68.0 °F - 62.6 °F 83% 30.09 in 10.0 mi NNE 5.8 mph - N/A   Clear
12:55 AM 68.0 °F - 62.6 °F 83% 30.10 in 10.0 mi North 5.8 mph - N/A   Clear
1:15 AM 68.0 °F - 62.6 °F 83% 30.11 in 10.0 mi North 4.6 mph - N/A   Clear
1:35 AM 66.2 °F - 62.6 °F 88% 30.11 in 10.0 mi North 4.6 mph - N/A   Clear
1:55 AM 66.2 °F - 62.6 °F 88% 30.11 in 10.0 mi NNE 3.5 mph - N/A   Clear
2:15 AM 66.2 °F - 62.6 °F 88% 30.11 in 10.0 mi NNE 3.5 mph - N/A   Clear
2:35 AM 66.2 °F - 60.8 °F 83% 30.11 in 10.0 mi NNE 3.5 mph - N/A   Clear
2:55 AM 64.4 °F - 60.8 °F 88% 30.11 in 10.0 mi North 3.5 mph - N/A   Clear
3:15 AM 64.4 °F - 60.8 °F 88% 30.11 in 10.0 mi NNE 3.5 mph - N/A   Clear
3:35 AM 64.4 °F - 60.8 °F 88% 30.11 in 10.0 mi Calm Calm - N/A   Clear
3:55 AM 64.4 °F - 60.8 °F 88% 30.11 in 10.0 mi Calm Calm - N/A   Clear
4:15 AM 64.4 °F - 60.8 °F 88% 30.11 in 10.0 mi Calm Calm - N/A   Clear
4:35 AM 64.4 °F - 60.8 °F 88% 30.12 in 10.0 mi Calm Calm - N/A   Clear
4:55 AM 64.4 °F - 60.8 °F 88% 30.12 in 10.0 mi Calm Calm - N/A   Clear
5:15 AM 64.4 °F - 59.0 °F 83% 30.13 in 10.0 mi North 3.5 mph - N/A   Clear
5:35 AM 62.6 °F - 59.0 °F 88% 30.13 in 10.0 mi Calm Calm - N/A   Clear
5:55 AM 62.6 °F - 59.0 °F 88% 30.15 in 10.0 mi Calm Calm - N/A   Clear
6:15 AM 62.6 °F - 57.2 °F 82% 30.15 in 10.0 mi NNE 3.5 mph - N/A   Clear
6:35 AM 64.4 °F - 57.2 °F 77% 30.15 in 10.0 mi NNE 3.5 mph - N/A   Clear
6:55 AM 66.2 °F - 57.2 °F 73% 30.15 in 10.0 mi Calm Calm - N/A   Clear
7:15 AM 66.2 °F - 57.2 °F 73% 30.15 in 10.0 mi NNE 3.5 mph - N/A   Clear
7:35 AM 69.8 °F - 59.0 °F 68% 30.15 in 10.0 mi Calm Calm - N/A   Clear
7:55 AM 69.8 °F - 59.0 °F 68% 30.15 in 10.0 mi ENE 5.8 mph - N/A   Clear
8:15 AM 71.6 °F - 60.8 °F 69% 30.17 in 10.0 mi ENE 3.5 mph - N/A   Clear
8:55 AM 71.6 °F - 57.2 °F 60% 30.17 in 10.0 mi ENE 8.1 mph - N/A   Clear
9:15 AM 73.4 °F - 55.4 °F 53% 30.17 in 10.0 mi ENE 8.1 mph - N/A   Clear
9:35 AM 73.4 °F - 57.2 °F 57% 30.17 in 10.0 mi ENE 8.1 mph - N/A   Clear
9:55 AM 75.2 °F - 55.4 °F 50% 30.18 in 10.0 mi East 8.1 mph - N/A   Clear
10:15 AM 75.2 °F - 57.2 °F 53% 30.17 in 10.0 mi East 6.9 mph - N/A   Clear
10:35 AM 77.0 °F - 57.2 °F 50% 30.17 in 10.0 mi East 4.6 mph - N/A   Clear
10:55 AM 77.0 °F - 55.4 °F 47% 30.18 in 10.0 mi ENE 3.5 mph - N/A   Clear
11:15 AM 78.8 °F - 57.2 °F 47% 30.19 in 10.0 mi Calm Calm - N/A   Clear
11:35 AM 78.8 °F - 55.4 °F 44% 30.18 in 10.0 mi East 3.5 mph - N/A   Clear
11:55 AM 78.8 °F - 57.2 °F 47% 30.18 in 10.0 mi NNE 4.6 mph - N/A   Clear
12:15 PM 80.6 °F 80.8 °F 57.2 °F 45% 30.17 in 10.0 mi NNE 3.5 mph - N/A   Clear
12:35 PM 78.8 °F - 57.2 °F 47% 30.17 in 10.0 mi North 4.6 mph - N/A   Clear
12:55 PM 78.8 °F - 57.2 °F 47% 30.16 in 10.0 mi ENE 4.6 mph - N/A   Clear
1:15 PM 80.6 °F 80.8 °F 57.2 °F 45% 30.15 in 10.0 mi NNE 6.9 mph - N/A   Clear
1:35 PM 80.6 °F 80.8 °F 57.2 °F 45% 30.15 in 10.0 mi NNE 4.6 mph - N/A   Clear
1:55 PM 80.6 °F 80.8 °F 57.2 °F 45% 30.15 in 10.0 mi ENE 5.8 mph - N/A   Clear
2:15 PM 80.6 °F 80.8 °F 57.2 °F 45% 30.15 in 10.0 mi Calm Calm - N/A   Clear
2:35 PM 80.6 °F 81.5 °F 60.8 °F 51% 30.14 in 10.0 mi NNE 4.6 mph - N/A   Clear
2:55 PM 80.6 °F 80.8 °F 57.2 °F 45% 30.15 in 10.0 mi NE 3.5 mph - N/A   Clear
3:15 PM 78.8 °F - 57.2 °F 47% 30.14 in 10.0 mi NNE 3.5 mph - N/A   Clear
3:35 PM 78.8 °F - 57.2 °F 47% 30.14 in 10.0 mi Calm Calm - N/A   Clear
3:55 PM 78.8 °F - 57.2 °F 47% 30.14 in 10.0 mi Calm Calm - N/A   Clear
4:15 PM 78.8 °F - 60.8 °F 54% 30.14 in 10.0 mi Calm Calm - N/A   Clear
4:35 PM 78.8 °F - 59.0 °F 51% 30.13 in 10.0 mi ENE 3.5 mph - N/A   Clear
4:55 PM 78.8 °F - 59.0 °F 51% 30.14 in 10.0 mi Calm Calm - N/A   Clear
5:15 PM 78.8 °F - 59.0 °F 51% 30.13 in 10.0 mi Calm Calm - N/A   Clear
5:35 PM 78.8 °F - 57.2 °F 47% 30.13 in 10.0 mi NNE 3.5 mph - N/A   Clear
5:55 PM 77.0 °F - 59.0 °F 54% 30.12 in 10.0 mi Calm Calm - N/A   Clear
6:15 PM 78.8 °F - 57.2 °F 47% 30.12 in 10.0 mi Calm Calm - N/A   Clear
6:35 PM 75.2 °F - 60.8 °F 61% 30.12 in 10.0 mi Calm Calm - N/A   Clear
6:55 PM 75.2 °F - 60.8 °F 61% 30.12 in 10.0 mi Calm Calm - N/A   Clear
7:15 PM 73.4 °F - 66.2 °F 78% 30.12 in 10.0 mi Calm Calm - N/A   Clear
7:35 PM 71.6 °F - 66.2 °F 83% 30.12 in 10.0 mi Calm Calm - N/A   Clear
7:55 PM 71.6 °F - 64.4 °F 78% 30.12 in 10.0 mi Calm Calm - N/A   Clear
8:15 PM 69.8 °F - 64.4 °F 83% 30.12 in 10.0 mi Calm Calm - N/A   Clear
8:35 PM 69.8 °F - 64.4 °F 83% 30.12 in 10.0 mi Calm Calm - N/A   Clear
8:55 PM 68.0 °F - 62.6 °F 83% 30.12 in 10.0 mi Calm Calm - N/A   Clear
9:15 PM 66.2 °F - 64.4 °F 94% 30.12 in 10.0 mi Calm Calm - N/A   Clear
9:35 PM 66.2 °F - 64.4 °F 94% 30.12 in 10.0 mi Calm Calm - N/A   Clear
9:55 PM 66.2 °F - 64.4 °F 94% 30.12 in 10.0 mi Calm Calm - N/A   Clear
10:15 PM 66.2 °F - 62.6 °F 88% 30.12 in 10.0 mi Calm Calm - N/A   Clear
10:35 PM 66.2 °F - 64.4 °F 94% 30.11 in 10.0 mi Calm Calm - N/A   Clear
10:55 PM 64.4 °F - 64.4 °F 100% 30.11 in 10.0 mi Calm Calm - N/A   Clear
11:15 PM 64.4 °F - 62.6 °F 94% 30.12 in 10.0 mi Calm Calm - N/A   Clear
11:35 PM 64.4 °F - 62.6 °F 94% 30.11 in 10.0 mi Calm Calm - N/A   Clear
11:55 PM 64.4 °F - 62.6 °F 94% 30.11 in 10.0 mi Calm Calm - N/A   Clear